{"data":{"norad_id":58378,"intl_designator":"2023-178E","name":"STARLINK-30920","alt_names":[],"object_type":"PAYLOAD","status":"ACTIVE","operator":null,"country":"US","launch_date":"2023-11-20","launch_site_code":"AFWTR","launch_vehicle":null,"mission":null,"orbit_class":"UNKNOWN","rcs_meters":null,"size_class":null,"mass_kg":null,"dimensions":null,"purposes":["comms"],"wikipedia_slug":null,"has_3d_model":false,"image_url":null,"decayed_at":null,"tle_current":{"epoch":"2026-09-20T03:54:17.064000Z","epoch_age_seconds":172829,"freshness":"STALE","line1":"1 58378U 23178E   26263.16269750 -.00001675  00000+0 -38442-4 0  9992","line2":"2 58378  53.1588 163.0643 0001894  49.7601 310.3567 15.34394959159872","mean_motion":15.34394959,"eccentricity":0.0001894,"inclination_deg":53.1588,"raan_deg":163.0643,"arg_perigee_deg":49.7601,"mean_anomaly_deg":310.3567,"bstar":-3.8442e-5,"rev_number":15987,"period_min":93.84806640257,"perigee_km":461.4225651832,"apogee_km":464.01388114174,"semimajor_km":6840.8552231625,"source":"CELESTRAK","updated_at":"2026-09-21T09:00:33.865457Z"}}}